Theta_e
303 304 305 307 305 304 303 304 303 302 302 301 300 301 301 301 298 296 298 301 306 308 310 310 310 312 312 312 318 322 322 322 322 324 328 332 332 332 332 332 334 335 337 339 342 343 343 343 343 342 341 340 340 340 341 340 340 340 341 342 342 341 340 339 338 337 338 337 338 338 338 337 336 335 334 333 331 330 330 329 330 328 328 329 328 328 330
303 303 305 306 304 303 304 304 304 304 303 301 302 302 303 303 302 304 303 303 307 310 310 311 312 313 314 315 318 319 319 322 323 324 323 330 333 333 332 331 333 335 336 338 340 342 342 342 342 342 340 339 339 338 339 339 339 340 340 341 341 341 339 338 338 338 338 337 337 337 337 336 335 335 334 332 331 331 331 332 331 332 330 330 330 330 330
302 303 305 305 303 303 303 305 305 305 305 304 304 304 304 306 304 305 304 305 306 311 313 313 312 311 313 315 315 318 319 322 325 324 324 326 333 333 333 331 331 333 335 336 339 340 341 341 341 342 341 339 339 338 338 338 338 339 339 339 341 340 338 338 339 338 336 336 337 336 336 336 335 335 334 333 332 331 331 331 331 331 332 330 330 331 331
299 304 303 303 303 303 303 303 304 304 303 302 304 303 303 306 304 306 304 303 304 309 313 313 313 312 314 314 314 315 316 320 323 323 323 323 324 328 333 335 334 332 332 332 334 338 340 341 341 341 341 339 338 337 337 337 338 339 339 339 339 339 339 338 338 336 335 336 336 336 336 335 335 335 334 333 331 331 331 330 331 332 331 332 332 332 332
297 303 303 303 303 301 299 302 303 305 306 307 309 312 312 312 307 305 302 303 309 311 314 312 311 311 313 314 315 315 315 317 319 319 319 321 325 327 327 333 335 334 334 334 334 337 340 341 340 341 341 339 337 337 337 338 338 339 338 339 338 338 338 338 336 337 335 335 336 335 335 335 334 333 332 331 330 330 330 331 331 331 332 332 332 332 331
295 301 302 302 297 293 295 305 311 309 307 307 306 306 309 313 312 305 306 308 311 312 313 312 311 311 313 315 316 320 320 320 321 322 323 325 325 329 332 333 336 336 336 336 336 337 339 341 342 342 341 339 339 338 338 338 338 338 338 338 337 338 337 337 337 337 335 336 335 334 335 335 333 332 331 331 331 331 332 332 332 332 332 332 332 331 331
296 301 301 297 291 293 306 314 310 311 311 311 308 309 310 311 312 312 310 310 311 313 314 314 314 314 317 319 318 319 320 320 320 320 321 320 320 324 330 333 335 336 337 337 338 338 339 340 341 342 341 340 339 338 338 338 338 338 337 337 336 334 334 335 336 336 338 337 335 335 335 334 333 332 332 331 331 332 332 331 331 332 332 332 332 333 332
297 295 294 289 292 302 312 312 313 317 311 309 309 307 309 311 310 311 310 310 311 312 313 314 315 316 317 318 318 318 319 320 320 321 321 321 322 322 323 330 334 336 337 338 338 339 342 342 341 341 341 341 339 337 338 336 336 336 335 333 331 330 331 333 334 334 337 336 336 335 334 333 333 332 331 331 331 331 332 330 331 332 332 333 332 331 327
293 294 292 293 302 304 304 307 310 307 307 306 304 298 306 311 313 310 308 310 314 314 314 315 316 316 317 315 317 319 320 323 324 324 324 325 325 324 325 324 324 335 338 339 340 341 341 342 342 341 341 340 338 335 331 333 333 332 332 331 331 332 333 332 332 334 336 335 335 334 334 333 332 332 331 331 331 332 331 331 330 331 331 330 329 329 328
300 294 291 293 293 292 299 306 313 311 311 310 308 303 303 310 313 316 313 311 312 313 314 314 314 316 312 309 314 316 320 325 325 323 324 323 324 326 332 332 331 330 336 338 339 339 339 338 337 338 337 334 333 331 331 331 329 329 331 331 332 331 330 332 335 335 334 334 334 334 332 332 332 332 332 332 332 333 331 331 331 331 329 328 329 330 329
299 294 288 291 289 293 301 307 310 311 310 311 308 302 297 307 312 316 314 312 312 313 313 312 313 310 306 306 311 314 321 323 323 322 324 330 332 331 331 337 341 342 341 339 339 338 336 335 334 336 336 334 332 330 331 331 331 329 330 330 331 331 334 336 335 334 335 334 333 333 332 332 333 332 332 332 332 332 331 330 330 328 329 327 327 325 326
298 294 291 292 296 299 307 310 311 313 311 311 305 293 294 307 314 316 317 314 314 314 315 312 311 310 306 309 311 316 319 323 325 324 324 327 330 330 329 338 342 341 341 339 334 333 333 333 335 336 336 335 334 333 333 332 331 330 330 330 330 334 335 336 334 332 330 332 334 333 332 332 333 333 333 332 331 331 329 329 329 328 326 326 326 324 326
298 300 295 296 301 310 314 312 313 315 315 305 294 289 300 311 314 315 315 316 316 315 315 313 310 313 313 313 319 321 322 325 325 324 325 325 330 330 335 339 341 333 333 336 335 334 334 334 335 336 336 334 333 332 332 332 332 333 333 333 335 333 333 335 332 331 330 331 334 334 333 333 333 332 331 331 331 331 330 329 328 326 326 327 328 324 323
297 297 295 295 300 309 313 313 316 317 307 296 298 305 311 315 315 317 317 316 317 317 317 316 315 317 319 322 320 321 322 322 321 322 322 323 330 339 339 338 334 331 329 330 332 333 334 335 335 335 334 333 331 332 331 331 332 334 333 332 334 333 333 335 334 331 331 334 336 335 334 332 329 328 330 333 332 329 328 326 325 325 327 326 322 321 320
302 300 296 294 290 302 314 314 313 315 303 305 312 317 317 320 317 317 318 317 317 316 314 316 317 316 317 318 319 319 319 321 322 324 324 324 324 334 335 334 334 331 329 329 330 331 332 334 335 335 334 332 331 332 330 332 333 333 333 335 336 335 334 334 335 333 334 335 335 334 332 332 331 330 329 329 329 329 328 326 324 324 324 323 320 318 316
299 299 294 293 302 309 315 315 307 312 314 316 320 317 313 317 318 318 317 317 317 318 316 316 316 317 318 317 317 318 320 324 324 324 325 328 333 334 337 338 335 332 329 329 330 330 331 332 333 334 334 333 332 330 330 332 332 332 333 333 334 333 332 331 332 332 331 333 332 331 331 332 330 327 327 328 327 325 324 323 323 323 320 320 317 316 316
304 301 304 310 314 312 314 315 314 315 317 318 317 316 314 314 315 318 317 317 319 320 321 320 320 319 319 317 318 318 320 325 323 323 324 325 325 326 331 336 337 331 329 328 328 329 330 330 331 333 334 333 333 331 331 333 331 331 332 332 332 331 330 331 330 328 329 327 328 329 329 328 326 325 323 324 323 323 323 322 322 322 318 317 315 315 314
313 314 315 317 313 313 313 314 314 314 315 316 315 314 313 314 315 316 317 319 321 321 322 321 320 320 321 322 324 326 324 322 323 325 323 323 326 329 332 335 335 331 328 328 328 328 327 328 328 330 330 330 329 329 331 331 330 331 331 330 330 331 331 329 327 329 328 328 327 327 326 325 325 323 323 324 323 322 324 324 321 319 317 314 313 313 313
298 298 310 313 315 314 314 313 314 315 316 314 315 314 314 314 315 315 316 317 317 319 321 322 323 323 324 323 323 325 325 325 325 325 322 322 323 327 330 332 334 328 327 327 327 328 328 331 332 332 331 329 329 331 331 332 333 331 331 331 331 328 326 326 326 327 327 326 325 324 323 323 325 326 321 323 325 325 323 321 319 318 319 318 316 315 313
302 306 313 317 318 314 315 314 313 312 313 315 315 315 315 314 316 316 316 318 316 317 318 320 322 326 326 324 322 326 327 326 325 324 324 323 323 324 328 332 330 327 326 326 328 325 324 328 330 330 331 330 331 332 333 333 331 331 330 329 327 327 327 326 325 326 328 335 325 317 314 315 318 319 319 321 321 320 320 320 318 316 317 318 316 317 315
312 316 315 317 314 311 311 314 314 315 314 313 313 314 314 314 313 314 315 317 317 317 316 318 317 318 323 327 325 326 326 326 325 324 323 323 323 323 325 327 329 328 328 326 323 322 324 327 329 330 331 334 334 332 331 330 328 328 328 326 324 324 328 329 330 331 330 327 318 314 310 308 305 305 308 312 312 307 305 305 311 316 313 312 314 312 315
307 307 310 315 305 304 308 311 315 315 315 313 312 312 312 313 313 314 314 316 318 318 318 319 320 319 323 328 328 325 325 327 328 326 326 326 327 326 326 326 327 327 327 322 321 323 324 327 329 330 329 327 326 325 323 322 322 322 327 331 328 328 329 330 330 330 327 323 316 312 310 309 308 306 303 296 299 308 307 306 302 302 306 309 310 310 306
305 314 315 314 310 308 311 313 315 316 315 313 311 311 311 312 314 316 318 318 319 319 320 317 319 315 317 319 327 327 326 326 329 330 329 328 327 327 327 325 324 322 321 323 322 322 323 325 327 327 325 325 324 324 325 325 323 321 321 326 328 328 328 327 328 328 325 319 315 313 311 310 310 308 305 304 295 294 298 301 297 293 293 297 303 307 309
317 318 317 319 313 307 310 312 312 312 315 312 311 313 315 314 313 314 315 316 316 317 315 314 316 316 315 317 324 327 326 328 329 329 329 328 327 327 326 325 323 322 322 321 321 321 322 324 325 325 324 324 325 327 327 326 325 323 322 322 325 325 327 326 327 328 321 319 316 313 312 311 311 309 307 305 304 298 293 294 294 292 292 293 296 299 301
315 320 318 316 310 311 313 310 309 310 313 314 312 312 315 315 317 318 311 311 311 311 311 311 312 313 315 317 322 324 326 328 329 327 327 328 328 326 325 325 324 324 322 322 322 322 323 324 325 324 323 324 325 326 327 327 325 323 321 321 322 322 323 325 326 330 323 320 318 315 313 312 311 310 308 307 305 303 302 296 293 292 291 293 293 295 295
316 315 313 311 309 308 311 309 308 310 312 312 311 311 312 320 318 312 311 311 311 312 312 310 311 312 316 317 321 325 325 327 329 330 326 328 328 326 325 325 326 325 324 323 322 323 324 324 324 324 323 323 324 325 326 325 324 322 322 324 324 322 323 326 325 324 322 321 319 317 315 313 312 310 311 309 307 306 305 305 304 301 296 292 292 293 291
309 310 308 305 304 305 307 305 306 311 312 311 310 309 310 310 315 313 311 312 312 312 311 311 312 313 318 319 320 325 325 327 328 327 326 327 328 327 327 327 326 325 324 322 322 323 326 325 323 321 322 323 323 324 325 325 325 325 324 323 323 333 335 331 322 321 318 318 319 319 317 316 315 315 314 312 311 309 307 307 306 305 304 305 296 288 297
309 308 307 303 302 305 308 311 312 311 311 311 310 310 311 310 310 309 309 310 310 312 312 313 313 314 317 317 317 320 324 326 326 325 325 326 325 324 325 325 324 323 323 324 324 327 325 323 323 324 323 324 325 326 327 327 326 324 323 323 323 324 329 330 325 322 321 319 318 320 319 317 317 317 318 317 314 311 309 311 309 307 306 303 304 303 294
308 309 310 310 308 310 311 310 310 310 310 311 312 311 311 309 308 308 308 309 310 311 311 312 313 317 316 315 316 317 320 322 323 323 323 323 323 322 324 326 325 326 325 325 324 324 324 324 324 324 324 326 328 328 328 327 325 325 324 323 324 324 323 322 322 322 320 319 319 319 321 321 321 320 319 317 316 313 311 311 311 309 306 305 304 305 304
307 307 308 308 309 308 307 306 307 307 308 309 309 310 309 308 307 307 308 308 309 309 309 310 310 312 313 312 314 315 316 317 321 323 324 324 323 324 326 324 324 324 325 324 324 324 324 324 324 324 324 326 328 327 326 324 324 324 324 324 323 323 324 324 322 320 318 317 319 323 320 320 320 320 319 317 316 314 313 312 312 310 306 306 308 305 303
306 307 307 307 307 307 306 305 305 306 307 307 307 308 308 308 307 306 306 307 308 308 308 308 309 310 310 311 313 315 316 317 321 322 321 321 322 323 323 323 322 322 323 324 325 324 324 324 323 323 324 326 327 327 326 324 324 324 323 322 322 323 323 322 321 319 318 319 319 318 316 317 317 319 319 317 317 315 313 314 313 311 310 307 307 306 305
304 304 305 305 305 304 304 305 305 305 306 307 306 305 306 307 306 306 306 307 307 307 307 306 307 308 308 310 312 314 313 316 320 321 322 321 320 319 319 320 323 328 325 325 324 325 323 322 322 322 322 323 324 325 325 325 324 322 321 327 322 322 321 321 320 320 321 323 319 317 318 315 314 315 318 318 316 314 313 313 312 311 309 308 307 305 304
302 301 301 302 304 303 303 304 304 305 306 306 306 307 307 307 307 309 308 309 308 308 307 307 307 307 307 308 308 309 312 317 319 318 318 317 318 319 320 321 321 321 321 322 324 324 324 323 323 324 323 323 323 324 325 325 323 322 320 320 320 322 325 320 320 319 323 321 318 316 316 316 315 315 314 315 314 315 312 312 313 313 310 307 305 303 302
303 301 302 303 304 302 302 303 304 304 306 307 307 307 307 308 308 307 307 310 309 308 307 307 307 307 307 307 307 309 317 318 316 316 316 316 317 319 322 323 320 319 319 320 321 322 322 322 322 321 321 323 324 325 325 325 323 322 321 320 319 318 318 317 319 322 322 322 318 320 317 318 311 311 315 314 312 310 313 313 314 312 306 304 301 302 299
307 306 307 306 306 307 308 305 304 305 306 305 306 306 306 307 308 308 314 310 306 307 307 307 306 307 308 308 308 312 318 318 316 315 315 315 315 317 318 319 319 318 318 318 319 320 322 323 323 322 322 323 323 324 324 323 322 321 320 321 323 321 321 322 319 319 319 318 316 313 312 312 313 317 316 312 312 313 313 315 313 309 304 301 301 302 300
307 306 306 306 306 308 306 306 306 306 306 305 305 306 306 307 310 309 308 308 308 308 308 308 309 309 310 310 309 313 318 317 314 314 314 315 315 315 316 317 317 317 317 317 319 321 324 326 331 329 323 322 321 321 321 320 320 321 321 320 321 321 320 320 319 317 317 315 315 315 315 316 316 316 316 313 313 312 310 311 311 308 304 302 302 301 302
308 307 306 306 306 306 305 305 306 306 306 306 306 306 307 309 310 310 312 309 309 309 308 309 308 309 311 314 314 316 319 317 316 315 315 316 316 315 316 317 317 317 318 317 317 321 325 329 332 330 323 321 321 321 324 325 316 317 318 317 317 318 317 315 315 314 314 315 315 315 317 316 313 313 315 311 310 309 310 310 311 307 304 304 304 303 302
307 307 307 306 306 306 306 307 308 308 308 308 308 309 310 309 309 310 310 310 310 309 310 310 309 310 315 317 316 316 317 316 316 317 316 316 316 316 316 316 316 316 315 315 317 318 323 328 328 322 317 317 318 320 324 327 324 315 315 317 317 318 317 315 314 313 313 312 317 313 313 311 310 310 311 310 310 311 311 311 311 308 306 305 303 302 302
307 307 307 308 308 307 307 308 308 308 309 307 307 307 310 310 311 311 310 310 310 313 312 310 310 311 313 315 316 316 316 316 317 316 315 315 317 316 316 315 316 315 315 317 318 320 323 322 320 315 315 315 316 318 322 324 321 311 311 313 315 315 315 315 312 313 312 313 311 311 310 309 309 309 309 310 310 312 314 312 310 309 306 304 303 302 301
307 307 307 308 307 307 307 307 307 307 309 309 308 307 308 311 311 311 310 310 310 314 311 309 309 310 311 314 315 315 316 317 317 316 315 316 315 314 313 314 316 318 322 325 320 321 325 325 317 313 312 312 313 314 320 320 318 312 308 309 312 313 312 314 312 311 311 310 312 316 311 311 310 311 310 310 310 310 310 311 311 309 307 306 304 302 303
307 307 307 307 307 307 307 306 306 306 307 308 309 310 312 311 310 309 309 309 310 311 310 311 310 311 311 313 315 316 316 317 317 316 316 314 313 313 313 311 314 318 320 316 319 323 324 318 314 310 310 310 313 320 314 317 310 307 308 309 308 309 310 312 313 312 311 310 313 310 310 310 309 310 309 308 308 309 310 309 308 307 306 305 303 302 302
307 308 307 307 307 307 307 307 307 306 306 307 310 311 311 311 310 309 309 309 309 310 309 311 316 311 310 311 313 314 314 315 315 316 316 315 314 312 311 310 315 315 324 324 323 320 317 316 316 316 311 312 315 318 318 315 305 304 304 306 308 309 308 310 311 310 311 310 309 308 309 308 308 308 308 309 308 308 308 307 305 305 304 304 303 302 301
309 308 307 307 307 307 307 307 306 307 307 308 310 309 310 310 310 309 309 309 310 309 309 309 313 315 313 309 310 311 311 313 314 314 314 315 316 315 312 312 313 316 324 318 313 310 311 311 311 312 319 317 315 318 316 305 303 302 303 305 309 307 307 308 307 307 307 305 306 306 306 307 307 306 307 306 306 306 307 305 304 303 303 301 300 300 300
309 309 308 308 307 308 307 307 307 307 307 307 309 309 309 308 309 310 309 310 311 312 312 311 313 313 314 311 309 309 309 311 312 312 311 311 312 313 314 315 315 322 323 316 312 310 310 311 311 316 320 319 318 316 308 302 303 302 303 304 304 305 307 305 303 303 303 304 303 303 304 308 307 306 306 305 304 304 306 306 305 304 303 301 300 300 299
309 308 309 309 308 308 306 305 306 306 307 309 308 308 309 308 308 309 309 309 311 313 314 313 313 314 313 312 310 311 311 312 312 311 310 308 308 309 314 321 319 320 320 318 312 310 309 310 316 320 319 316 313 312 301 300 300 302 302 304 304 304 305 304 303 303 304 302 301 301 303 304 305 306 305 305 307 305 305 306 305 305 305 303 300 299 299
310 310 310 313 308 307 307 307 308 308 308 308 307 308 311 309 310 310 311 311 311 312 314 314 314 314 313 314 314 314 313 314 314 314 312 311 310 310 314 320 317 321 320 317 310 308 309 319 317 316 314 312 312 306 301 308 306 300 301 302 302 304 303 301 302 302 302 303 302 300 300 300 301 301 301 302 304 304 304 307 306 304 304 303 301 300 299
309 310 309 309 309 310 310 309 310 309 308 306 305 305 308 310 310 309 310 311 312 312 313 313 314 315 315 314 313 312 311 311 312 313 314 314 318 318 320 321 321 321 318 311 310 308 311 313 313 314 313 312 311 298 299 298 299 300 301 302 303 301 302 300 300 299 299 299 303 305 307 306 303 300 305 305 301 302 302 304 302 302 301 302 302 303 303
309 309 309 310 309 309 309 308 306 305 305 305 305 307 309 309 308 308 309 310 311 312 313 313 313 315 315 317 317 316 313 312 309 308 311 313 313 314 315 312 315 320 317 317 314 314 314 313 312 314 314 312 307 297 300 300 301 301 300 301 301 299 298 297 298 297 298 300 301 297 297 296 297 299 300 299 299 300 300 301 300 301 301 301 301 301 301
307 308 310 311 309 308 308 307 308 309 306 307 309 308 310 311 310 309 310 310 311 311 311 312 312 313 314 317 317 313 316 315 309 308 310 312 312 313 312 317 322 321 315 310 309 308 313 310 310 312 313 313 300 299 299 299 304 305 305 302 302 300 300 297 296 295 295 298 298 299 298 298 297 297 298 300 300 300 302 301 300 300 300 301 301 302 301
308 308 308 307 307 307 306 305 305 304 305 310 308 309 310 309 307 308 309 309 310 317 310 308 308 310 311 311 312 314 315 315 316 314 313 312 312 311 313 313 315 319 313 308 307 306 313 311 310 312 312 305 299 300 300 300 301 304 303 306 305 302 303 301 302 301 298 301 298 299 299 299 296 299 300 299 298 300 300 300 300 302 304 304 302 300 300
307 307 308 309 309 310 308 307 307 307 307 308 309 310 312 310 308 312 310 311 309 309 309 308 308 309 310 310 311 312 315 314 315 320 312 312 311 314 316 313 314 314 312 309 307 304 303 303 301 307 309 306 301 302 302 303 303 303 307 304 305 304 303 302 300 298 298 299 298 298 299 299 298 296 296 297 300 300 300 301 300 299 299 299 300 299 299
310 308 308 309 308 308 308 308 308 308 309 309 309 309 309 310 310 310 309 320 310 307 308 307 307 307 308 309 312 310 312 314 315 315 318 314 312 310 315 318 311 312 310 306 303 302 301 302 306 309 310 304 301 301 306 309 306 304 304 306 306 304 306 304 302 299 299 300 300 298 301 298 297 298 299 297 299 299 300 300 299 298 299 297 298 299 298
Wind_Speed
16 14 11 5 8 11 8 12 11 12 9 7 10 8 9 10 9 10 7 10 15 16 17 17 18 17 15 14 14 14 12 9 6 7 9 11 13 11 11 12 13 14 14 14 17 18 20 20 19 19 17 16 15 16 17 16 15 16 15 15 15 15 15 14 11 10 12 14 10 10 10 9 9 9 8 7 7 7 7 7 7 7 7 6 5 5 5
8 10 11 7 10 8 15 15 13 12 11 9 12 10 6 10 8 13 13 14 15 16 14 17 19 12 13 11 8 7 9 11 9 8 9 10 10 12 13 14 14 15 17 17 18 18 18 19 19 18 17 16 17 17 16 16 16 16 15 16 17 17 17 14 13 15 14 10 11 10 10 11 10 9 8 7 7 7 7 7 7 7 6 6 5 6 6
13 9 9 5 5 8 8 13 12 9 11 15 15 13 13 10 6 1 9 15 13 9 15 17 9 6 5 8 7 11 10 10 10 10 10 10 11 11 11 9 11 14 16 16 16 16 17 19 20 19 18 18 18 18 16 17 17 17 17 17 17 17 15 14 15 13 12 11 11 11 12 11 9 8 8 7 7 7 7 7 7 6 6 6 6 6 7
5 4 4 3 4 4 7 7 6 4 2 5 3 5 1 5 6 6 10 11 12 12 2 2 6 8 13 13 10 8 7 9 11 10 10 10 9 10 10 11 11 10 9 9 11 14 16 17 18 18 18 18 16 17 17 17 17 16 15 14 13 10 9 6 5 8 10 11 11 13 12 11 10 9 8 8 8 7 7 7 7 6 6 7 7 7 7
3 4 7 7 9 7 4 6 4 3 4 4 4 3 4 2 6 8 5 9 12 11 8 9 5 8 11 12 11 11 8 9 10 10 9 8 9 8 8 10 11 12 12 13 14 15 14 15 15 16 16 14 16 15 16 17 12 12 15 15 14 17 18 15 11 7 9 14 13 11 11 11 9 8 8 8 8 7 9 8 5 6 7 6 8 8 7
5 5 6 3 5 2 2 6 2 6 7 7 9 2 2 1 4 4 7 10 6 2 7 13 13 14 15 14 8 8 12 9 8 8 8 10 9 8 8 10 12 13 12 11 12 14 15 16 17 17 15 16 18 17 15 12 14 16 16 14 16 14 12 13 13 14 17 15 12 12 11 9 8 8 9 9 9 8 8 7 7 7 7 8 8 8 8
4 3 6 2 4 4 6 2 3 6 8 13 9 7 6 4 9 8 8 4 4 11 11 11 10 6 3 4 8 5 6 9 9 9 8 8 8 10 9 8 9 11 12 12 11 11 11 12 12 11 11 12 10 9 11 14 14 10 8 11 10 9 10 9 7 7 10 9 10 11 9 9 9 10 10 9 9 9 8 8 9 9 9 9 8 9 9
2 2 3 5 4 4 1 2 1 3 6 6 10 9 10 10 5 8 10 9 7 8 11 9 7 8 6 4 1 4 5 7 8 7 7 8 9 9 9 10 9 10 10 11 12 13 12 11 11 10 12 12 11 14 9 2 7 7 9 11 9 8 8 9 7 9 10 8 12 10 9 9 10 11 10 10 11 9 9 8 8 7 6 7 6 1 9
6 4 5 4 1 2 5 2 2 3 4 3 8 4 3 6 9 3 6 6 14 11 6 7 8 7 6 6 3 2 4 5 6 10 9 9 7 6 6 6 8 8 9 10 11 10 9 11 12 13 12 11 9 5 12 13 12 11 13 12 10 7 4 3 1 9 9 13 13 12 11 11 11 11 11 11 10 8 9 9 8 7 3 1 1 1 5
6 7 3 2 2 3 1 4 6 4 1 6 7 9 3 7 9 7 3 8 7 11 12 11 8 8 10 6 0 2 2 2 4 3 4 4 5 4 4 2 4 6 5 4 2 3 3 3 3 3 4 7 12 14 14 13 15 14 13 13 13 13 10 8 9 10 10 11 11 12 11 12 13 12 12 9 9 7 9 9 4 5 6 3 2 6 7
5 6 4 1 3 2 5 5 5 4 4 6 8 9 3 4 8 9 2 9 9 12 12 7 8 9 7 4 3 4 3 1 4 5 3 4 7 8 9 10 8 6 7 10 10 10 10 8 4 6 10 14 13 12 13 13 13 13 9 8 11 12 12 12 11 11 12 10 11 11 12 13 12 12 10 10 8 5 2 3 5 6 6 4 3 1 2
3 3 2 0 0 2 3 5 6 6 4 2 2 2 2 6 11 8 1 7 6 5 3 5 9 11 10 5 3 3 1 1 1 5 6 4 4 2 5 5 7 8 11 12 10 9 9 9 10 13 14 14 14 12 10 10 11 13 16 15 13 14 13 11 11 15 16 11 12 12 13 12 11 11 9 5 4 5 4 4 4 5 5 2 3 2 5
4 4 0 1 1 2 2 5 6 7 2 9 6 4 4 5 6 5 6 8 5 4 7 5 8 5 2 3 1 4 3 6 6 4 1 3 1 4 5 5 5 7 6 12 13 13 12 12 11 12 13 14 14 14 14 13 14 15 13 10 12 14 14 15 16 17 15 12 14 14 12 12 11 7 4 4 4 6 5 5 5 4 4 4 4 5 6
1 0 1 1 1 1 4 5 5 6 4 6 7 4 2 2 3 6 8 11 8 9 11 8 7 4 5 4 5 8 9 6 5 6 6 4 2 5 3 2 5 7 5 6 8 8 10 14 13 12 12 13 12 12 13 14 16 12 9 9 11 13 16 16 15 15 15 13 13 13 11 7 4 4 3 5 6 6 6 5 5 2 1 0 3 4 3
3 3 3 0 1 4 11 12 8 8 7 3 4 1 3 2 4 6 7 8 6 7 6 5 5 5 6 6 6 4 5 4 2 1 1 1 1 1 3 1 1 7 7 7 10 11 9 10 11 12 14 14 13 12 14 16 11 7 5 6 8 11 13 13 15 16 13 13 11 6 3 6 7 6 5 7 6 7 8 6 4 1 3 3 5 4 3
3 3 1 1 3 9 12 4 7 2 3 3 3 5 7 7 8 7 8 9 7 6 6 6 6 6 7 7 6 3 3 5 5 5 5 3 4 4 2 1 5 4 6 7 8 6 8 8 8 8 11 12 13 13 16 12 9 7 5 7 8 7 5 0 9 10 6 4 4 5 6 7 8 8 6 6 6 5 4 4 4 3 4 5 5 5 4
5 1 1 2 5 5 8 11 9 7 6 6 5 10 9 10 9 5 10 10 9 9 8 11 10 10 7 5 5 5 2 2 2 3 2 3 4 3 3 4 1 3 7 12 8 9 7 8 8 9 8 12 12 12 9 5 9 9 8 7 8 6 6 6 3 4 5 4 3 4 6 9 9 7 4 3 3 2 3 1 2 5 5 5 6 6 4
5 7 4 2 3 7 9 7 6 8 7 6 7 9 10 7 8 8 8 8 9 9 9 11 8 6 5 6 7 6 6 6 4 3 4 3 3 3 3 4 4 2 5 0 8 8 4 1 4 9 13 14 13 12 15 13 5 2 6 9 8 9 7 5 3 5 6 5 7 7 5 4 6 5 5 5 3 1 2 4 6 7 7 5 5 4 4
5 2 3 4 3 4 7 6 5 7 7 5 5 8 6 5 6 8 6 5 5 4 6 7 4 5 5 6 4 2 4 4 4 4 2 0 1 3 4 4 6 4 3 2 4 5 7 7 8 10 13 12 12 12 12 13 13 6 9 10 9 8 8 8 6 2 5 6 7 6 6 5 4 3 4 5 4 5 5 7 6 5 5 5 5 4 3
4 5 2 1 1 2 2 5 6 6 7 9 8 6 5 5 6 6 6 7 11 10 10 10 10 10 8 8 7 3 2 1 1 2 3 2 0 1 1 5 6 6 6 5 7 9 9 9 11 10 11 12 11 10 9 10 10 7 9 8 3 5 5 6 4 4 6 10 9 6 5 5 5 5 5 4 6 6 6 7 7 4 5 5 5 5 5
1 3 3 2 2 7 8 6 4 4 5 6 8 10 11 12 12 11 11 12 11 13 11 12 12 12 10 6 5 4 2 3 3 2 3 3 3 2 2 1 2 8 7 8 9 12 10 9 12 13 12 11 13 14 11 11 12 12 10 8 6 6 4 2 3 5 6 6 6 6 6 6 6 6 5 3 5 5 4 2 1 6 6 4 4 4 5
6 7 6 3 5 2 2 4 4 5 4 9 9 10 11 10 10 9 10 10 10 10 10 10 12 12 9 10 7 9 6 5 4 3 2 2 0 1 1 3 4 4 7 12 13 12 9 10 12 13 14 13 12 12 11 12 13 11 9 9 10 9 8 5 4 2 3 5 5 5 6 6 6 6 10 9 6 2 2 3 4 3 5 3 5 5 5
8 3 3 3 6 5 1 1 4 5 4 7 10 8 7 6 6 5 5 6 7 6 9 4 3 5 6 9 8 8 7 7 5 3 3 4 4 3 4 6 5 7 7 9 13 13 10 10 12 11 11 10 10 11 10 8 10 10 7 5 0 1 3 3 4 6 6 7 6 6 7 7 7 8 5 6 9 9 6 5 6 8 8 5 5 4 6
8 6 4 2 2 5 2 1 2 4 3 6 7 5 6 8 8 7 6 3 2 1 3 4 2 3 4 7 7 8 8 6 4 3 4 4 4 4 4 5 9 10 10 10 12 13 10 11 12 10 9 9 11 11 10 11 13 13 12 10 9 10 12 13 15 12 9 9 8 8 6 6 7 8 7 7 4 6 7 6 5 5 6 7 7 8 7
3 6 3 1 5 4 2 3 5 5 4 6 8 8 9 9 8 6 8 7 5 4 4 5 5 4 6 8 8 8 7 5 3 2 4 4 5 6 8 8 9 10 10 11 11 12 11 12 13 13 12 12 13 14 11 9 8 10 13 13 12 10 9 9 9 9 9 9 9 9 9 8 7 7 8 8 8 4 1 3 3 4 7 7 8 9 9
12 10 4 4 5 5 1 1 8 8 7 8 7 7 8 8 7 7 7 5 4 4 4 5 8 10 7 8 10 9 8 6 4 3 3 5 4 3 6 10 10 8 10 11 12 13 13 15 14 13 11 10 7 5 5 7 9 8 8 9 9 7 7 8 8 8 9 9 9 8 8 8 8 8 7 7 8 8 7 4 2 3 4 5 4 7 6
6 4 3 9 9 7 7 6 2 4 6 6 7 6 6 6 7 5 4 6 7 7 6 6 7 7 7 7 9 8 5 6 4 4 3 4 8 10 10 10 12 12 10 6 4 5 8 6 5 4 4 4 4 6 6 7 7 5 5 5 6 7 10 8 7 8 8 7 8 8 8 8 7 7 7 6 7 8 8 8 7 6 4 2 2 0 2
10 10 9 9 5 6 5 5 3 4 6 7 7 8 7 8 10 12 13 12 11 8 5 4 7 8 9 9 9 11 8 5 6 5 5 7 4 1 1 2 3 4 5 5 5 6 7 5 5 5 4 4 7 5 6 7 7 7 6 6 5 4 4 5 5 5 5 6 6 7 8 7 7 6 7 6 7 6 5 5 6 6 4 4 2 2 2
9 9 9 8 4 3 4 7 10 10 10 8 7 7 9 11 9 9 9 7 6 8 11 11 6 3 4 7 7 9 8 5 4 6 6 5 5 4 2 2 2 3 4 4 5 6 7 7 7 7 4 6 7 7 7 7 7 7 6 5 6 6 5 5 5 5 5 5 5 6 6 7 7 6 6 6 6 6 6 6 6 6 6 4 3 3 2
6 7 8 7 8 10 13 12 9 10 11 10 11 9 8 9 9 7 5 6 6 7 6 6 9 11 8 7 8 8 9 9 8 5 5 3 2 0 2 3 4 4 3 4 5 6 8 8 7 7 6 6 8 7 8 7 7 7 6 5 5 7 6 6 5 6 6 6 6 6 6 6 7 7 7 7 7 7 7 7 7 7 6 5 5 5 6
7 10 11 11 11 10 11 8 6 7 8 9 8 9 10 7 6 6 7 6 6 6 5 5 6 8 9 8 7 8 9 9 8 7 5 3 2 5 7 8 8 5 6 6 5 6 8 7 6 4 3 5 6 6 7 7 6 6 5 5 5 8 11 10 7 7 6 6 5 5 4 6 7 7 7 7 7 7 6 6 6 6 6 5 6 6 6
9 10 13 12 10 9 8 7 8 8 7 7 9 10 9 6 6 7 7 7 6 5 6 7 6 6 6 7 6 6 8 10 8 5 2 2 3 4 4 4 7 9 6 5 4 5 6 5 5 2 2 4 5 6 7 7 6 6 6 6 6 6 7 9 5 6 5 5 5 5 5 5 5 5 6 7 7 7 7 6 6 6 6 7 7 6 5
12 12 11 10 11 11 10 7 7 8 7 7 5 3 4 4 4 4 4 5 7 7 8 9 10 10 9 7 8 8 9 8 5 1 1 2 3 4 5 6 7 7 5 5 6 5 4 4 4 2 4 5 5 5 4 5 4 5 4 4 5 5 5 5 6 5 4 3 4 6 5 5 5 5 6 5 5 6 6 6 6 6 6 6 6 5 4
9 4 3 4 3 5 5 7 5 6 6 5 4 4 4 4 4 3 4 3 4 7 8 8 8 8 10 9 9 10 8 4 4 2 2 3 3 4 5 6 6 6 5 5 7 7 6 5 4 6 7 7 5 5 6 7 6 6 5 6 6 5 4 3 4 5 5 4 3 3 3 4 3 4 4 4 5 5 5 5 6 6 6 6 5 4 4
4 4 4 5 5 5 4 4 5 5 6 7 8 8 6 4 3 4 4 4 4 4 4 4 5 6 7 7 7 9 7 6 5 2 1 1 3 5 6 8 9 9 8 5 5 6 5 4 3 4 5 6 6 4 5 6 6 6 5 6 7 6 7 6 6 5 1 3 4 5 4 4 3 4 3 3 4 3 3 4 5 6 6 6 5 4 4
7 7 6 6 6 5 6 5 5 4 4 4 5 6 6 4 4 5 5 5 4 4 4 5 5 7 8 7 7 7 7 4 3 3 3 3 3 2 4 8 8 8 8 5 3 2 4 6 9 11 8 7 7 7 7 8 7 6 6 6 6 6 5 6 5 3 2 3 5 5 5 4 4 2 3 2 3 4 4 5 6 6 6 6 7 6 5
7 6 5 5 5 5 5 5 5 4 4 3 4 4 4 4 4 3 3 4 4 4 4 5 4 6 8 8 8 6 5 4 4 3 5 5 5 5 8 8 6 4 5 7 2 5 6 8 13 16 9 7 7 7 9 12 7 6 6 7 6 6 5 5 5 5 4 4 4 5 3 4 4 5 4 3 3 3 4 5 5 5 6 6 6 6 6
5 5 4 4 4 4 4 5 5 4 4 4 3 2 3 4 4 4 4 4 5 5 5 5 5 5 6 4 2 1 1 2 5 6 8 7 8 7 4 4 3 1 3 5 3 4 6 11 15 10 7 7 6 6 9 13 10 7 6 6 5 5 5 5 5 4 4 4 4 4 4 5 6 5 4 4 3 3 4 4 5 6 6 6 5 5 6
6 4 3 4 3 3 4 4 4 4 4 4 5 4 4 5 4 4 5 5 5 5 6 6 5 4 2 4 5 5 5 4 2 1 1 3 6 8 7 7 8 5 2 2 3 6 8 8 8 8 7 6 5 5 8 12 10 6 5 4 3 2 3 3 4 3 3 3 4 5 5 4 4 4 3 4 4 4 4 4 5 7 7 6 6 6 6
6 5 6 6 5 4 4 4 4 4 4 3 3 4 4 4 4 4 5 5 5 7 6 6 4 3 2 5 7 7 4 5 6 5 6 8 6 4 6 5 5 5 6 8 5 6 10 14 9 7 6 4 4 5 5 8 7 5 6 4 2 1 1 1 1 2 3 3 4 5 4 4 4 4 4 4 4 4 3 3 5 6 6 6 6 6 7
6 6 5 5 4 4 4 4 4 3 2 2 2 2 3 3 4 5 6 6 7 6 5 4 4 3 2 1 4 8 8 8 8 7 7 6 4 3 6 7 3 1 5 5 5 6 9 7 7 7 5 5 5 5 5 7 6 5 5 4 5 4 1 0 1 1 2 3 3 3 5 6 5 5 4 4 5 5 5 4 5 6 7 7 7 7 7
6 5 4 5 4 4 4 3 4 3 3 3 3 2 2 2 2 3 5 5 5 6 6 5 1 2 1 2 2 3 5 6 7 7 8 11 8 7 4 2 1 1 4 5 6 7 7 6 6 6 6 6 5 9 9 5 5 4 4 3 3 2 2 1 0 2 2 3 3 4 4 4 5 5 5 5 5 6 6 5 6 7 7 7 8 8 8
6 6 5 5 5 5 4 3 3 3 4 3 3 3 2 2 3 3 4 4 4 5 4 6 6 5 4 2 2 3 3 3 4 3 3 2 1 4 2 5 2 2 9 7 7 6 6 6 6 5 7 6 5 10 8 5 4 4 3 2 2 2 2 1 2 1 0 1 3 3 3 3 5 6 6 6 6 6 6 7 7 7 8 8 7 7 7
5 4 4 4 3 3 3 3 3 3 4 5 5 4 3 3 3 5 5 4 4 5 6 7 7 5 3 3 1 1 1 2 4 4 6 4 3 3 1 4 3 6 11 7 6 6 6 6 5 10 14 12 11 9 4 3 3 3 1 1 1 1 1 1 1 1 2 2 1 1 3 5 6 6 6 6 6 6 6 7 7 7 7 6 6 6 7
4 3 4 5 3 3 3 3 3 4 4 5 4 4 2 3 3 3 4 4 3 3 4 6 7 6 1 3 3 2 3 3 5 6 7 3 3 0 1 3 3 4 7 8 6 6 6 5 9 13 9 11 9 8 4 3 2 1 1 1 0 0 0 0 1 1 1 1 1 1 1 2 6 7 6 6 7 6 7 7 7 7 7 7 7 7 7
4 4 3 5 3 3 3 3 3 3 3 4 5 5 3 3 4 4 4 4 5 5 3 4 6 5 3 0 1 2 1 1 0 1 0 4 6 5 3 4 3 4 9 10 5 5 4 8 10 9 9 10 9 6 3 2 1 1 1 0 0 1 1 1 0 1 0 1 1 1 3 4 3 5 6 6 5 6 7 8 7 7 7 7 8 8 8
4 4 4 3 4 4 4 4 4 3 4 4 5 6 6 3 3 4 5 4 5 5 4 4 3 4 4 0 3 5 3 1 1 1 1 2 3 5 5 6 6 8 8 6 6 5 5 6 7 8 9 9 8 4 4 2 2 0 0 0 1 2 2 3 3 3 2 1 0 1 3 4 3 3 1 2 3 3 3 5 6 7 7 7 8 8 8
4 5 5 4 4 4 4 4 4 4 4 4 5 6 5 4 3 3 3 4 4 4 4 3 3 2 1 0 0 1 4 6 3 1 1 2 2 3 4 4 3 8 8 9 9 8 12 11 9 8 9 9 5 4 3 3 3 2 2 1 1 3 4 3 3 3 3 2 1 0 1 3 2 1 3 3 4 4 4 4 4 5 6 7 7 7 7
4 4 4 4 3 3 3 4 4 5 5 4 4 5 5 5 5 3 3 3 3 3 3 4 3 2 2 1 1 2 3 2 3 4 3 4 4 4 4 4 7 9 7 5 6 5 9 11 10 9 10 9 5 5 4 3 2 2 2 2 3 3 3 4 6 5 4 3 3 2 2 2 1 1 3 3 3 3 4 4 5 6 6 6 6 6 6
4 4 4 5 4 4 4 4 6 6 5 5 5 4 4 3 5 6 4 3 3 3 3 4 3 3 4 3 2 2 3 3 1 1 3 5 4 4 4 5 4 5 7 6 5 6 8 11 10 10 8 4 5 4 4 4 3 3 3 4 3 4 4 5 5 5 4 4 4 3 3 3 3 3 4 4 3 3 4 5 5 6 8 7 6 7 6
4 3 4 4 4 5 4 4 5 6 5 6 6 4 3 3 3 3 4 4 3 2 4 4 4 4 3 3 3 3 3 3 2 3 3 4 4 6 6 5 4 5 6 6 6 7 6 6 6 6 6 6 5 4 4 4 4 5 5 4 4 3 3 3 4 5 5 4 4 3 2 2 3 1 1 3 2 2 2 3 4 5 5 6 7 7 7
4 3 4 5 4 5 6 6 5 5 5 5 5 4 3 3 3 4 5 5 2 2 3 3 4 5 3 3 3 3 4 4 4 3 5 5 5 5 6 7 5 5 6 6 6 6 7 7 7 7 7 6 6 5 5 6 5 5 5 4 4 4 4 4 5 5 5 4 4 4 4 4 3 2 2 3 3 4 4 4 5 5 5 5 6 7 7
Wind_Direction
220 213 208 212 195 192 199 207 207 202 187 178 191 203 193 138 174 199 228 194 177 192 192 194 192 188 186 174 178 175 175 170 171 161 150 168 181 184 182 186 184 190 188 190 191 188 187 185 184 185 186 189 189 191 188 184 181 183 178 176 177 181 185 186 172 145 162 201 200 192 189 191 201 203 202 201 201 194 194 196 199 204 209 207 207 217 227
234 221 217 179 181 207 200 208 209 206 193 187 188 206 214 182 198 204 188 182 201 184 194 193 195 189 169 173 171 154 144 164 172 153 149 168 181 184 189 189 191 190 190 188 189 190 189 188 187 187 187 187 190 191 190 187 185 184 175 179 179 184 187 180 164 174 183 188 188 187 188 196 201 197 196 196 195 200 200 196 199 203 207 209 211 220 227
221 228 224 213 191 172 227 218 215 217 209 203 196 203 200 184 222 213 155 176 217 233 193 190 182 155 133 120 150 165 169 155 157 160 169 170 176 190 193 197 198 198 198 197 193 187 189 190 190 188 189 191 193 192 189 188 189 185 181 183 184 184 182 177 176 174 160 200 192 187 192 199 200 195 201 198 200 206 209 210 211 215 209 213 220 226 224
200 195 146 158 169 177 201 190 184 197 165 238 234 218 217 158 205 185 165 176 211 224 235 72 109 147 157 160 162 151 161 168 159 169 180 163 169 171 185 195 204 208 206 206 203 202 197 193 193 191 192 194 189 194 191 192 194 185 183 182 177 163 164 160 170 173 166 206 202 195 195 197 194 195 196 198 202 207 211 216 220 215 218 220 222 223 224
223 211 115 88 61 35 317 240 201 117 84 95 79 79 107 143 148 114 151 227 212 204 154 141 174 171 162 154 165 164 172 171 152 159 166 166 166 183 188 188 195 200 202 201 201 203 202 198 195 199 197 192 197 197 194 199 183 176 181 174 165 172 180 167 148 149 199 220 205 197 196 193 188 186 192 196 201 202 212 215 210 214 224 225 228 224 223
201 220 136 87 57 75 251 247 266 115 121 115 84 11 353 262 150 179 184 210 214 103 157 162 170 177 174 166 187 165 156 152 143 149 156 158 169 181 188 191 191 199 199 199 204 201 198 199 198 197 193 195 200 198 192 185 185 190 183 173 175 169 148 146 162 173 202 215 202 203 202 191 183 188 193 199 201 203 209 211 210 218 221 225 227 223 221
185 151 108 114 169 201 225 287 318 94 108 88 83 60 18 14 63 69 75 57 150 177 170 168 157 145 128 130 133 143 142 133 143 157 166 166 173 179 184 188 196 197 194 193 189 192 203 205 205 201 204 207 200 187 189 195 198 178 159 159 145 130 125 126 147 208 219 198 207 210 207 193 188 196 200 203 202 205 204 205 207 211 216 220 224 222 223
93 55 83 169 224 228 311 273 195 84 85 99 74 38 14 6 36 99 94 94 69 92 111 111 122 121 115 64 52 153 171 153 146 145 171 189 178 179 186 180 197 192 194 190 185 192 194 193 200 204 208 202 192 199 187 134 68 88 99 91 82 93 127 151 174 214 209 191 215 214 205 197 195 201 203 202 205 205 204 211 213 213 219 219 229 72 53
145 173 123 180 228 11 346 38 357 345 122 110 112 116 19 19 346 10 88 88 104 89 76 103 111 119 93 75 53 294 214 192 168 165 182 175 187 180 201 186 183 196 191 184 192 186 184 189 191 199 204 199 195 132 89 98 108 107 115 117 123 123 101 81 235 244 214 194 204 209 204 198 201 204 204 209 213 199 204 213 217 213 211 68 55 133 180
111 118 59 32 118 150 288 261 263 322 244 143 141 100 335 327 355 345 110 107 112 116 124 124 122 94 78 99 106 289 310 241 181 181 159 181 144 140 102 40 132 152 180 189 155 135 123 97 110 75 66 76 89 110 130 138 137 145 147 144 148 151 155 156 203 217 218 213 210 210 201 200 203 207 208 209 210 194 200 215 211 79 91 129 193 182 185
49 49 106 156 136 223 212 266 293 305 297 144 101 76 358 287 330 339 275 129 141 139 134 141 112 100 127 184 251 273 303 97 134 115 150 138 129 131 133 132 124 139 131 133 131 130 140 144 105 96 107 112 118 130 140 146 150 149 140 156 168 159 164 176 178 200 232 213 212 211 203 204 203 206 208 209 210 175 150 104 129 141 121 179 245 191 164
72 123 85 189 204 110 322 275 294 306 289 186 74 107 284 290 329 319 146 106 96 60 61 128 116 131 144 192 238 259 273 237 258 133 135 95 123 112 112 122 134 122 117 107 108 122 132 142 143 133 129 127 131 137 150 156 155 164 177 184 174 172 167 172 173 196 224 222 220 213 208 208 206 208 208 203 175 122 134 135 118 127 152 130 234 223 119
18 44 250 353 356 324 300 279 297 340 14 76 65 130 233 308 321 8 53 45 17 78 75 61 77 17 188 196 279 349 4 59 31 12 4 109 162 144 132 125 116 115 127 134 147 154 151 152 146 144 142 143 153 159 165 173 184 187 185 171 162 169 174 183 188 197 215 217 217 216 209 207 205 199 177 167 132 134 127 125 132 123 121 182 206 176 194
96 248 124 227 195 234 301 277 360 344 59 59 118 219 214 274 353 33 58 65 48 55 68 75 78 67 47 44 37 43 40 47 22 10 7 33 67 71 51 85 118 109 105 116 137 147 157 158 155 154 154 159 164 167 172 187 197 193 175 175 170 171 186 193 189 202 214 211 209 210 211 194 145 113 120 129 138 128 121 115 96 73 299 143 167 189 189
70 50 65 329 273 291 324 304 18 18 81 190 209 154 4 353 31 39 40 59 57 64 58 66 95 76 57 62 42 15 33 46 45 133 169 120 316 93 85 106 90 131 126 146 158 160 174 174 169 169 164 161 167 172 184 199 192 177 164 168 180 187 191 192 193 203 204 205 205 194 151 131 123 124 128 117 114 123 133 122 119 157 217 145 147 156 168
121 51 61 45 245 276 317 89 87 321 71 153 163 131 78 39 42 27 36 27 26 37 67 47 42 45 35 25 22 42 51 13 6 10 19 42 82 73 54 187 169 161 138 151 153 173 169 178 180 173 162 166 173 178 198 197 177 169 136 137 142 128 91 339 231 222 194 155 117 124 129 123 125 125 118 125 126 139 132 147 142 126 130 144 143 147 172
102 109 126 285 310 310 9 67 93 88 58 60 80 81 78 70 45 31 53 30 22 28 31 44 39 35 26 6 9 20 354 102 54 55 33 28 26 51 84 94 18 294 179 163 160 167 182 175 184 183 180 171 175 190 215 171 177 177 163 129 94 95 126 198 209 102 63 78 106 116 131 134 127 118 98 107 118 186 181 186 103 127 157 163 161 175 184
109 111 119 245 357 17 28 31 64 88 89 79 68 66 71 62 70 56 60 42 23 13 31 46 25 34 19 37 29 8 350 354 360 23 36 27 71 97 90 93 106 110 325 203 148 153 146 93 37 32 34 33 36 13 7 351 330 79 126 114 107 118 144 140 81 73 108 90 71 67 77 89 117 140 154 167 157 120 103 104 130 145 167 162 158 169 183
79 44 310 28 41 14 20 40 48 63 69 76 93 84 74 79 74 68 54 52 46 15 31 53 33 6 21 29 29 31 357 18 2 331 328 337 238 145 133 145 127 108 128 121 92 79 66 63 77 76 74 76 75 65 53 38 11 21 89 78 86 110 117 127 135 141 94 96 85 71 63 72 79 87 103 107 120 128 131 132 140 146 156 158 166 180 183
98 173 232 289 303 60 60 53 43 29 40 54 58 85 105 101 83 81 76 39 26 17 24 20 16 357 357 7 351 351 345 304 281 276 268 259 318 311 171 142 125 125 132 126 103 92 92 101 103 98 96 90 89 84 74 71 77 45 63 89 86 91 113 111 115 115 105 104 99 88 45 42 60 62 57 98 113 125 141 145 144 160 170 174 176 184 198
340 23 349 301 340 40 26 21 46 64 73 67 53 48 48 44 42 33 34 45 28 13 9 2 357 356 353 353 320 291 252 275 268 270 282 319 341 351 24 15 130 148 137 103 100 102 109 114 108 107 102 91 77 68 62 59 52 48 37 30 4 18 45 92 116 91 87 95 110 112 99 75 58 39 22 40 100 86 22 360 199 164 164 173 182 194 179
156 165 188 163 96 63 335 348 351 19 37 66 60 50 47 47 44 37 37 32 26 13 358 10 351 333 329 317 304 295 281 261 260 261 259 281 358 88 106 101 100 103 114 123 116 108 104 103 102 100 96 95 92 92 87 76 67 52 22 7 11 5 354 26 43 84 133 135 133 123 120 126 110 75 52 47 19 65 98 22 40 71 127 173 183 150 114
182 231 173 141 128 119 184 26 27 42 42 65 65 57 51 49 60 61 56 57 39 24 314 347 327 311 317 308 290 271 267 254 244 231 218 183 168 172 145 122 115 109 107 113 112 110 115 109 105 103 100 104 102 94 83 78 90 88 42 339 18 104 220 234 202 203 178 157 158 137 139 133 126 121 118 45 40 36 34 34 44 44 54 75 116 147 143
13 330 261 130 117 115 105 90 79 55 40 67 69 60 54 45 30 26 42 74 110 276 299 328 326 323 326 327 298 271 266 263 264 244 241 237 211 167 144 140 135 125 124 127 130 134 138 128 125 122 115 115 117 122 144 162 143 143 155 197 217 201 195 191 198 188 169 157 154 147 147 143 139 142 134 124 63 28 36 26 31 56 69 76 89 101 105
110 315 299 74 90 91 123 96 56 45 39 54 56 46 46 49 41 44 43 38 39 33 14 354 349 357 350 342 336 290 277 278 277 258 243 219 196 170 150 143 148 143 143 145 148 151 152 146 147 152 154 161 161 171 175 150 145 160 172 187 208 218 213 197 178 166 157 158 160 158 154 154 158 158 151 151 146 139 25 45 67 55 51 62 86 94 90
141 218 232 96 69 47 330 14 30 21 31 44 51 42 42 52 58 62 60 67 59 36 26 360 353 350 359 354 344 320 291 276 265 238 198 193 186 176 167 163 162 160 154 154 155 159 162 163 162 163 166 168 166 153 136 158 183 188 181 188 201 197 183 163 155 161 163 163 161 164 162 163 166 168 168 160 156 150 140 125 68 30 45 53 86 101 85
108 178 118 55 38 25 30 56 41 359 33 45 57 56 46 50 58 76 74 53 40 32 23 8 358 340 349 353 346 330 289 295 311 274 257 237 201 195 181 170 171 170 165 147 125 138 148 137 111 92 95 115 153 178 182 162 159 165 160 158 169 179 162 148 153 158 163 160 161 159 163 171 171 167 160 156 152 154 160 161 165 160 177 183 253 327 126
54 39 52 79 65 47 35 35 58 43 36 31 29 31 27 34 33 28 23 18 15 13 26 32 8 1 1 354 354 348 342 311 279 268 254 247 262 284 95 108 114 123 123 126 124 113 111 115 115 111 117 149 155 157 149 139 135 134 143 136 120 108 119 130 129 133 140 147 152 159 168 172 167 159 154 151 156 160 155 155 151 153 159 198 177 143 69
44 51 55 67 81 76 49 40 32 25 17 11 24 32 30 29 25 29 27 24 9 3 360 353 4 34 15 344 354 349 340 329 315 303 298 297 302 333 2 74 92 92 94 103 114 124 121 118 114 112 127 135 127 129 133 129 128 127 127 130 124 126 132 133 134 127 133 138 142 151 152 149 151 148 148 152 151 152 161 160 159 164 166 156 125 93 63
37 48 53 49 42 38 40 32 23 17 16 10 14 14 22 28 24 14 14 15 14 10 344 339 345 342 351 354 350 339 333 319 296 263 258 268 275 109 115 77 61 47 62 104 133 137 129 129 123 121 135 139 135 132 126 117 122 127 136 136 136 139 142 143 133 132 128 134 144 142 136 138 145 153 158 160 161 162 163 166 165 162 161 165 166 163 176
31 36 37 35 36 39 44 33 23 19 15 10 13 8 4 16 29 10 356 350 357 346 341 341 326 324 333 340 332 323 319 312 300 279 245 240 230 152 156 148 129 151 167 159 151 141 132 127 117 117 146 131 129 125 114 117 123 126 124 132 136 146 144 143 143 145 147 142 140 122 129 148 158 158 159 160 161 164 166 163 163 163 157 158 163 170 191
42 33 29 20 17 21 26 23 19 17 10 9 14 12 0 0 359 348 335 336 327 324 320 329 331 321 319 321 322 313 309 306 299 297 253 143 122 135 168 180 155 153 140 133 122 114 101 92 87 99 95 100 109 119 129 137 140 138 143 142 134 132 139 135 129 138 144 147 143 152 180 157 155 152 151 159 165 166 166 162 161 160 156 163 169 181 180
32 20 16 6 5 8 5 5 11 0 359 3 1 353 351 349 340 317 304 305 314 326 337 336 333 332 331 327 324 316 304 283 284 323 51 101 112 116 112 114 115 118 117 113 97 75 70 89 115 84 45 43 57 72 90 100 97 102 101 101 110 129 139 143 141 139 136 141 155 164 169 162 151 146 151 151 155 155 158 158 153 157 163 165 167 168 172
32 26 339 338 8 356 341 334 344 348 344 343 338 342 339 344 343 331 314 310 331 343 340 328 320 319 321 321 318 311 303 273 252 219 162 146 125 106 103 102 87 78 69 73 81 84 82 100 114 99 97 88 75 79 97 108 112 115 115 106 105 106 116 122 135 143 148 154 157 152 134 132 127 141 138 136 140 147 157 149 150 150 143 144 148 138 132
35 19 13 4 357 349 351 344 339 339 341 336 334 333 332 333 353 344 353 9 354 311 298 296 302 305 309 306 303 295 280 244 235 183 170 117 96 101 109 103 98 93 86 78 95 103 106 99 76 83 78 77 77 75 87 91 97 98 98 103 96 84 74 61 34 355 4 114 112 99 87 82 78 88 102 119 122 127 126 131 136 128 134 141 146 139 162
14 7 359 355 345 340 339 338 330 322 322 323 321 322 324 340 356 3 350 329 305 306 310 316 315 314 309 302 293 281 260 228 187 170 170 119 83 69 91 106 115 109 103 76 30 44 64 74 95 92 79 76 77 78 80 84 79 84 91 88 88 88 85 86 103 127 136 122 110 105 91 96 98 104 126 141 148 147 138 125 134 138 140 151 154 166 178
10 358 347 339 331 329 327 326 321 323 321 328 332 335 341 340 334 306 290 292 295 300 299 297 304 307 301 296 282 256 225 191 156 114 87 72 58 36 21 15 25 61 89 80 7 26 67 94 101 93 85 80 84 86 93 92 86 90 94 99 98 103 112 119 119 116 125 116 94 101 129 149 172 187 174 154 152 142 131 130 135 137 150 150 159 165 169
346 346 338 330 324 325 323 313 313 316 323 324 323 310 318 319 314 307 303 294 290 283 285 275 260 267 276 291 343 260 186 132 133 143 145 149 146 137 125 128 117 93 122 172 160 97 112 104 97 89 89 87 92 97 102 101 102 98 96 103 111 119 123 126 129 136 134 137 158 159 153 157 166 165 167 162 167 157 154 151 150 144 145 156 160 166 171
348 338 333 326 327 328 325 327 332 329 332 328 323 327 325 317 314 321 309 299 295 297 289 284 272 269 259 80 82 77 78 60 15 330 184 143 139 134 148 162 158 156 190 160 116 113 101 103 103 102 102 104 96 88 93 96 89 82 80 72 80 104 127 142 147 163 167 160 145 157 165 163 162 162 167 179 176 174 176 178 152 151 156 161 165 171 176
346 345 336 339 340 337 344 341 333 329 334 334 338 330 327 336 333 325 312 312 315 327 313 299 279 261 198 132 120 113 107 104 104 79 31 1 352 76 97 80 93 126 126 120 117 117 113 108 105 106 106 104 102 93 91 92 89 89 86 85 91 109 144 152 164 176 186 169 179 173 174 178 172 178 183 186 192 188 190 190 158 157 160 165 170 174 177
344 340 343 346 343 344 344 337 337 327 332 337 333 329 342 341 331 323 320 322 322 321 317 310 302 323 311 289 134 134 133 134 131 124 104 71 333 269 144 136 188 129 115 121 113 112 110 109 114 114 124 114 106 97 87 87 81 80 82 79 68 69 58 223 229 223 209 196 199 192 193 195 193 185 181 186 192 199 197 174 158 167 169 173 176 178 188
349 349 352 349 347 348 347 342 334 343 341 330 339 346 328 319 313 309 310 314 320 321 321 321 95 139 124 46 29 85 114 124 133 140 142 148 171 243 140 144 200 77 128 102 95 101 106 116 122 121 122 117 117 115 105 89 83 81 79 81 81 78 69 82 283 253 248 239 233 219 212 203 202 207 203 193 192 197 195 183 170 173 179 176 179 183 187
350 355 351 351 351 357 353 343 342 340 334 337 340 336 329 335 331 330 335 342 338 324 338 345 344 358 351 351 52 72 96 119 124 117 107 111 193 272 177 167 179 185 132 119 125 117 122 120 121 123 124 122 120 112 92 79 72 70 59 55 46 50 43 70 90 87 90 252 262 269 265 247 221 215 206 207 208 197 189 187 186 185 185 183 179 178 184
338 349 344 339 344 349 355 357 351 356 359 337 327 320 329 344 343 331 336 346 348 345 348 344 333 317 311 314 1 123 218 173 120 128 115 86 36 12 28 151 183 162 136 123 121 124 124 128 133 133 127 121 116 107 97 96 89 84 70 54 28 35 73 93 66 90 98 84 77 261 238 237 233 228 217 211 209 209 201 197 192 189 189 181 173 171 175
326 333 332 324 330 340 354 354 354 340 319 297 301 301 297 310 310 302 306 312 315 319 333 315 315 316 244 191 249 242 259 236 179 143 111 98 101 217 264 172 154 136 133 129 123 126 135 144 138 131 124 122 119 113 104 103 93 97 82 75 58 39 321 121 112 90 101 112 8 346 328 246 233 229 219 216 210 205 204 198 198 193 185 181 175 174 179
330 334 321 326 338 345 350 330 307 300 301 312 314 314 311 293 291 294 294 295 295 295 285 292 308 318 326 143 166 174 157 154 306 345 66 155 169 203 203 163 147 152 138 127 110 126 145 140 129 127 131 131 120 112 114 110 101 111 96 112 222 224 215 259 215 161 181 123 84 356 340 322 280 221 204 199 198 193 199 199 199 198 193 179 174 177 179
329 338 330 332 346 345 330 310 297 308 316 324 327 318 309 302 286 283 283 276 266 266 279 281 286 294 311 175 147 141 134 91 360 9 67 72 105 136 168 163 168 144 127 131 138 144 145 138 138 144 142 134 127 124 135 145 149 171 166 109 343 328 263 229 208 200 190 162 139 10 350 356 340 288 215 167 176 187 199 201 198 191 180 170 170 172 171
327 331 322 329 339 335 333 325 326 315 307 295 287 288 292 289 282 281 286 293 295 297 298 302 294 275 263 338 53 161 161 148 147 280 293 146 154 162 160 162 167 137 141 147 149 157 157 153 160 158 152 148 140 156 175 178 182 183 182 196 231 258 267 240 214 210 192 179 178 109 22 344 352 271 252 194 173 160 152 156 158 156 162 166 168 167 166
301 303 309 321 319 328 335 325 326 325 310 302 308 302 304 314 314 324 328 331 332 320 315 307 309 308 326 279 198 151 184 186 143 201 218 179 184 188 200 186 189 157 142 150 158 166 172 167 171 173 174 162 162 179 187 196 204 213 222 231 264 269 242 220 221 212 189 187 189 197 206 219 251 223 246 251 207 180 156 148 154 153 157 157 160 165 164
286 313 326 324 319 316 311 315 306 296 297 305 300 296 306 328 337 320 323 325 305 305 312 304 298 296 301 309 309 240 220 228 239 191 157 167 184 186 190 188 198 160 156 160 167 177 184 181 180 183 184 169 177 185 192 194 202 206 219 231 237 251 247 227 220 209 200 202 206 215 224 230 240 225 206 214 219 184 169 155 155 149 141 138 147 153 155
274 274 279 284 286 284 272 251 258 269 278 281 279 281 292 300 283 287 295 287 273 305 305 304 304 282 273 273 266 248 225 213 218 188 167 183 179 189 189 190 188 177 171 169 175 181 186 190 194 198 192 185 192 196 202 206 206 219 221 219 228 238 238 223 213 218 222 216 204 208 205 215 194 155 164 181 202 189 169 155 155 158 154 151 152 162 168
256 236 250 260 260 269 277 281 275 270 266 269 274 280 285 282 289 295 286 282 213 221 270 286 298 292 261 235 229 230 224 209 203 199 182 183 187 193 195 187 181 182 177 182 188 191 195 196 198 203 199 195 200 208 216 216 220 230 229 214 201 205 215 214 211 217 228 228 210 200 197 200 191 194 204 208 197 183 191 187 181 181 183 178 170 166 170